Regional Weather Roundup
Issued by NWS

Home | Current Version | Previous Version | Text Only | Print | Product List | Glossary On
Versions: 1 2 3 4 5 6 7 8 9 10 11 12 13 14 15 16 17 18 19 20 21 22 23 24 25 26 27
000
ASUS45 KBOI 260810
RWRID

IDAHO REGIONAL WEATHER ROUNDUP
NATIONAL WEATHER SERVICE BOISE ID
200 AM MDT MON SEP 26 2016

NOTE: "FAIR" INDICATES FEW OR NO CLOUDS BELOW 12000 FEET
WITH NO SIGNIFICANT WEATHER AND/OR OBSTRUCTIONS TO VISIBILITY

IDZ012-014-260900-
SOUTHWEST IDAHO


CITY           SKY/WX    TMP DP  RH WIND       PRES   REMARKS
BOISE          CLEAR     57  40  52 SE8       30.34F
CALDWELL       NOT AVBL
MOUNTAIN HOME  CLEAR     49  39  69 E5        30.36S
$$

IDZ016-017-260900-
SOUTHCENTRAL IDAHO


CITY           SKY/WX    TMP DP  RH WIND       PRES   REMARKS
BURLEY         CLEAR     43  40  89 CALM      30.41F
JEROME         CLEAR     51  35  54 E6        30.41F
TWIN FALLS     CLEAR     52  33  48 S10       30.41F
$$

IDZ019>023-260900-
SOUTHEAST IDAHO


CITY           SKY/WX    TMP DP  RH WIND       PRES   REMARKS
IDAHO FALLS    CLEAR     43  39  86 CALM      30.46S
POCATELLO      CLEAR     46  39  76 CALM      30.45F
REXBURG        CLEAR     42  40  92 NE3       30.46S
$$

IDZ006-010-011-018-031-032-260900-
CENTRAL IDAHO MOUNTAINS


CITY           SKY/WX    TMP DP  RH WIND       PRES   REMARKS
MCCALL         CLEAR     45  39  79 CALM      30.44F
HAILEY         CLEAR     48  41  76 NW7       30.48S
STANLEY          N/A     37  35  92 CALM      30.55S
SALMON         CLEAR     43  37  81 CALM      30.45R
CHALLIS        CLEAR     46  38  73 S3        30.47S
$$

IDZ002-004-006-007-026-260900-
NORTHERN IDAHO


CITY           SKY/WX    TMP DP  RH WIND       PRES   REMARKS
LEWISTON       PTCLDY    61  39  44 E7        30.30F
LOWELL           N/A     49  46  90 CALM      30.42S
COEUR D`ALENE  NOT AVBL
MULLAN PASS    CLEAR     49  38  65 S5        30.47F
$$




USA.gov is the U.S. government's official web portal to all federal, state and local government web resources and services.